When you browse on this site, cookies collect data to enhance your experience and personalize the content and advertising you see.
Visit our Privacy Policy to learn more. By continuing to use the site, you agree to this use of cookies and data.
  • In Hungary
  • List of Countries
  • For 7 days
  • Water Temperature
  • Weather Map
  • News
  • Weather Widgets
  • user-avatar
    Login

    Hourly Weather Duravichi

    Today, 21 August, Wednesday

    Time Temperature Precipitation Wind Pressure Humidity
    00:00 +20°C° 0 mm 2 mps 755 mmHg 72%
    01:00 +20°C° 0 mm 2 mps 755 mmHg 71%
    02:00 +20°C° 0 mm 2 mps 755 mmHg 71%
    03:00 +19°C° 0 mm 2 mps 755 mmHg 71%
    04:00 +19°C° 0 mm 2 mps 755 mmHg 72%
    05:00 +19°C° 0 mm 2 mps 755 mmHg 72%
    06:00 +20°C° 0 mm 2 mps 755 mmHg 70%
    07:00 +21°C° 0 mm 2 mps 755 mmHg 68%
    08:00 +24°C° 0 mm 2 mps 755 mmHg 66%
    09:00 +25°C° 0 mm 2 mps 755 mmHg 61%
    10:00 +27°C° 0 mm 3 mps 755 mmHg 56%
    11:00 +29°C° 0 mm 3 mps 755 mmHg 52%
    12:00 +30°C° 0 mm 3 mps 755 mmHg 50%
    13:00 +30°C° 0 mm 3 mps 755 mmHg 48%
    14:00 +31°C° 0 mm 3 mps 754 mmHg 46%
    15:00 +30°C° 0 mm 3 mps 754 mmHg 50%
    16:00 +30°C° 0 mm 3 mps 754 mmHg 53%
    17:00 +30°C° 0 mm 2 mps 753 mmHg 56%
    18:00 +28°C° 0 mm 3 mps 753 mmHg 59%
    19:00 +26°C° 0 mm 3 mps 753 mmHg 63%
    20:00 +24°C° 0 mm 3 mps 753 mmHg 66%
    21:00 +22°C° 0 mm 3 mps 753 mmHg 67%
    22:00 +22°C° 0 mm 3 mps 753 mmHg 67%
    23:00 +21°C° 0 mm 3 mps 753 mmHg 68%

    Tomorrow, 22 August, Thursday

    Time Temperature Precipitation Wind Pressure Humidity
    00:00 +20°C° 0 mm 3 mps 753 mmHg 70%
    01:00 +20°C° 0 mm 3 mps 753 mmHg 72%
    02:00 +19°C° 0 mm 2 mps 753 mmHg 74%
    03:00 +19°C° 0.1 mm 3 mps 753 mmHg 80%
    04:00 +19°C° 0.1 mm 3 mps 753 mmHg 87%
    05:00 +18°C° 0.1 mm 4 mps 754 mmHg 93%
    06:00 +17°C° 0.3 mm 5 mps 754 mmHg 92%
    07:00 +17°C° 0.3 mm 5 mps 755 mmHg 90%
    08:00 +17°C° 0.3 mm 6 mps 755 mmHg 89%
    09:00 +17°C° 0 mm 6 mps 755 mmHg 85%
    10:00 +19°C° 0 mm 6 mps 756 mmHg 82%
    11:00 +19°C° 0 mm 6 mps 756 mmHg 78%
    12:00 +20°C° 0 mm 6 mps 756 mmHg 76%
    13:00 +20°C° 0 mm 6 mps 756 mmHg 73%
    14:00 +21°C° 0 mm 6 mps 756 mmHg 70%
    15:00 +21°C° 0 mm 5 mps 756 mmHg 70%
    16:00 +21°C° 0 mm 5 mps 756 mmHg 70%
    17:00 +21°C° 0 mm 5 mps 756 mmHg 70%
    18:00 +19°C° 0 mm 4 mps 756 mmHg 76%
    19:00 +18°C° 0 mm 4 mps 757 mmHg 82%
    20:00 +16°C° 0 mm 3 mps 757 mmHg 88%
    21:00 +16°C° 0 mm 3 mps 757 mmHg 89%
    22:00 +14°C° 0 mm 3 mps 758 mmHg 91%
    23:00 +14°C° 0 mm 3 mps 758 mmHg 92%

    Day after tomorrow, 23 August, Friday

    Time Temperature Precipitation Wind Pressure Humidity
    00:00 +14°C° 0 mm 3 mps 758 mmHg 92%
    01:00 +13°C° 0 mm 3 mps 758 mmHg 91%
    02:00 +13°C° 0 mm 3 mps 758 mmHg 91%
    03:00 +13°C° 0 mm 3 mps 758 mmHg 92%
    04:00 +12°C° 0 mm 3 mps 758 mmHg 92%
    05:00 +12°C° 0 mm 3 mps 758 mmHg 93%
    06:00 +14°C° 0 mm 3 mps 758 mmHg 88%
    07:00 +16°C° 0 mm 3 mps 758 mmHg 82%
    08:00 +17°C° 0 mm 3 mps 758 mmHg 77%
    09:00 +19°C° 0 mm 3 mps 758 mmHg 70%
    10:00 +21°C° 0 mm 3 mps 758 mmHg 64%
    11:00 +22°C° 0 mm 4 mps 758 mmHg 57%
    12:00 +23°C° 0 mm 4 mps 758 mmHg 54%
    13:00 +23°C° 0 mm 4 mps 758 mmHg 52%
    14:00 +25°C° 0 mm 4 mps 758 mmHg 50%
    15:00 +24°C° 0 mm 3 mps 758 mmHg 53%
    16:00 +24°C° 0 mm 3 mps 758 mmHg 57%
    17:00 +22°C° 0 mm 3 mps 758 mmHg 60%
    18:00 +21°C° 0 mm 3 mps 758 mmHg 65%
    19:00 +19°C° 0 mm 3 mps 758 mmHg 71%
    20:00 +17°C° 0 mm 2 mps 758 mmHg 76%
    21:00 +16°C° 0 mm 2 mps 758 mmHg 78%
    22:00 +15°C° 0 mm 2 mps 758 mmHg 80%
    23:00 +15°C° 0 mm 2 mps 758 mmHg 81%

    24 August, Saturday

    Time Temperature Precipitation Wind Pressure Humidity
    00:00 +14°C° 0 mm 2 mps 758 mmHg 83%
    01:00 +14°C° 0 mm 2 mps 758 mmHg 85%
    02:00 +13°C° 0 mm 2 mps 758 mmHg 87%
    03:00 +13°C° 0 mm 2 mps 758 mmHg 88%
    04:00 +13°C° 0 mm 2 mps 759 mmHg 89%
    05:00 +12°C° 0 mm 2 mps 759 mmHg 90%
    06:00 +14°C° 0 mm 2 mps 759 mmHg 84%
    07:00 +16°C° 0 mm 2 mps 759 mmHg 77%
    08:00 +18°C° 0 mm 2 mps 759 mmHg 71%
    09:00 +19°C° 0 mm 2 mps 759 mmHg 65%
    10:00 +21°C° 0 mm 2 mps 759 mmHg 59%
    11:00 +23°C° 0 mm 2 mps 758 mmHg 53%
    12:00 +24°C° 0 mm 2 mps 758 mmHg 50%
    13:00 +25°C° 0 mm 1 mps 758 mmHg 47%
    14:00 +25°C° 0 mm 1 mps 758 mmHg 44%
    15:00 +25°C° 0 mm 1 mps 757 mmHg 46%
    16:00 +25°C° 0 mm 1 mps 757 mmHg 49%
    17:00 +25°C° 0 mm 1 mps 757 mmHg 51%
    18:00 +22°C° 0 mm 1 mps 757 mmHg 56%
    19:00 +20°C° 0 mm 1 mps 756 mmHg 61%
    20:00 +16°C° 0 mm 0 mps 756 mmHg 66%
    21:00 +15°C° 0 mm 0 mps 756 mmHg 69%
    22:00 +15°C° 0 mm 0 mps 757 mmHg 71%
    23:00 +14°C° 0 mm 0 mps 757 mmHg 73%

    25 August, Sunday

    Time Temperature Precipitation Wind Pressure Humidity
    00:00 +14°C° 0 mm 0 mps 756 mmHg 75%
    01:00 +14°C° 0 mm 0 mps 756 mmHg 77%
    02:00 +13°C° 0 mm 0 mps 756 mmHg 79%
    03:00 +13°C° 0 mm 0 mps 756 mmHg 80%
    04:00 +13°C° 0 mm 0 mps 756 mmHg 80%
    05:00 +12°C° 0 mm 0 mps 756 mmHg 81%
    06:00 +14°C° 0 mm 0 mps 756 mmHg 76%
    07:00 +18°C° 0 mm 1 mps 756 mmHg 70%
    08:00 +20°C° 0 mm 1 mps 756 mmHg 65%
    09:00 +21°C° 0 mm 1 mps 756 mmHg 61%
    10:00 +23°C° 0 mm 1 mps 756 mmHg 57%
    11:00 +24°C° 0 mm 1 mps 756 mmHg 53%
    12:00 +25°C° 0 mm 1 mps 756 mmHg 51%
    13:00 +25°C° 0 mm 2 mps 756 mmHg 49%
    14:00 +26°C° 0 mm 2 mps 756 mmHg 47%
    15:00 +25°C° 0 mm 2 mps 756 mmHg 51%
    16:00 +25°C° 0 mm 2 mps 756 mmHg 56%
    17:00 +25°C° 0 mm 2 mps 755 mmHg 60%
    18:00 +23°C° 0 mm 2 mps 756 mmHg 65%
    19:00 +20°C° 0 mm 2 mps 756 mmHg 71%
    20:00 +18°C° 0 mm 2 mps 756 mmHg 76%
    21:00 +17°C° 0 mm 2 mps 756 mmHg 81%
    22:00 +17°C° 0 mm 2 mps 757 mmHg 87%
    23:00 +16°C° 0 mm 2 mps 757 mmHg 92%

    26 August, Monday

    Time Temperature Precipitation Wind Pressure Humidity
    00:00 +16°C° 0 mm 2 mps 757 mmHg 93%
    01:00 +16°C° 0 mm 2 mps 757 mmHg 94%
    02:00 +15°C° 0 mm 2 mps 757 mmHg 95%
    03:00 +15°C° 0 mm 2 mps 757 mmHg 95%
    04:00 +14°C° 0 mm 2 mps 758 mmHg 95%
    05:00 +14°C° 0 mm 2 mps 758 mmHg 95%
    06:00 +14°C° 0 mm 3 mps 758 mmHg 89%
    07:00 +17°C° 0 mm 3 mps 758 mmHg 83%
    08:00 +18°C° 0 mm 3 mps 758 mmHg 77%
    09:00 +19°C° 0 mm 3 mps 758 mmHg 71%
    10:00 +21°C° 0 mm 3 mps 759 mmHg 65%
    11:00 +24°C° 0 mm 3 mps 759 mmHg 59%
    12:00 +24°C° 0 mm 3 mps 758 mmHg 56%
    13:00 +25°C° 0 mm 3 mps 758 mmHg 53%
    14:00 +25°C° 0 mm 3 mps 758 mmHg 51%
    15:00 +25°C° 0 mm 3 mps 758 mmHg 53%
    16:00 +25°C° 0 mm 2 mps 757 mmHg 56%
    17:00 +24°C° 0 mm 2 mps 757 mmHg 59%
    18:00 +21°C° 0 mm 2 mps 757 mmHg 61%
    19:00 +20°C° 0 mm 3 mps 757 mmHg 64%
    20:00 +18°C° 0 mm 3 mps 757 mmHg 67%
    21:00 +17°C° 0 mm 3 mps 757 mmHg 69%
    22:00 +17°C° 0 mm 3 mps 757 mmHg 70%
    23:00 +16°C° 0 mm 3 mps 758 mmHg 72%
    Show more